TIME,DELAY(SENSOR),PRES,OXYGEN,RAWTEMP,T(OPTODE),TCPHASE,FLUOR,BETA(BETA700),BETA(BETA412),BETA(BETA440),CDOM,C(CSC),ED(ED412.40),ED(ED444.00),ED(ED489.70),ED(ED554.30),LU(LU411.80),LU(LU443.40),LU(LU489.60),LU(LU554.10),COMP,TILTX,TILTY,CHECK
1378007701,5807,856.6900024414062000,45.6534996032714840,661.3359985351562000,4.5839791297912600,54.1792488098144500,52,101,88,79,78,15247,2147750747,2147427309,2148014720,2147874752,2147632923,2147060260,2148261248,2147197074,2944,3,13,15820
1378011297,5808,934.1599731445312000,48.6690902709960940,670.1444702148438000,4.2934231758117680,53.8536186218261700,52,98,85,77,80,15249,2147756644,2147424996,2148013412,2147872365,2147639817,2147055963,2148260032,2147194779,3092,4,13,26724
1378014897,5808,948.2800292968750000,49.5928688049316400,671.4617919921875000,4.2498970031738280,53.7453994750976560,53,98,85,76,78,15250,2147758921,2147425920,2148012918,2147875181,2147638564,2147053330,2148261138,2147198564,92,4,13,33622
1378018497,5806,974.3300170898438000,50.2998313903808600,673.7340087890625000,4.1747698783874510,53.6749305725097660,53,99,85,78,78,15248,2147753252,2147424987,2148014628,2147872448,2147640969,2147054262,2148262025,2147197504,3571,4,13,15982
1378022097,5808,980.3699951171875000,50.6993598937988300,674.9517211914062000,4.1344847679138180,53.6400909423828100,52,96,84,78,78,15247,2147755629,2147428260,2148013110,2147873435,2147641526,2147050669,2148259026,2147196589,3528,4,13,11658
1378025697,5811,985.0700073242188000,50.4917716979980500,674.5347290039062000,4.1482810974121090,53.6562194824218750,52,99,82,77,79,15249,2147750454,2147424329,2148013997,2147870838,2147641609,2147056228,2148266678,2147197302,377,4,13,62452
1378029297,5810,995.5000000000000000,50.3901405334472660,674.3292236328125000,4.1550807952880860,53.6726799011230500,53,98,83,78,78,15246,2147751981,2147423734,2148012388,2147875291,2147639488,2147054720,2148261302,2147198098,3424,4,13,61903
1378032897,5811,992.8099975585938000,50.2404212951660160,674.3400268554688000,4.1547222137451170,53.6956901550293000,52,99,80,79,79,15232,2147756406,2147424475,2148014628,2147875885,2147639131,2147047579,2148261595,2147194422,115,4,13,61844
1378036497,5808,1000.4799804687500000,50.0328598022460940,674.2775268554688000,4.1567921638488770,53.7169609069824200,52,99,87,79,79,15231,2147754624,2147424475,2148014509,2147874916,2147640109,2147058294,2148261723,2147195949,17,4,13,45775
1378040097,5809,998.5399780273438000,49.8540611267089840,673.6984863281250000,4.1759448051452640,53.7351989746093750,53,100,83,78,78,15230,2147754733,2147423945,2148013001,2147872018,2147640219,2147054491,2148264201,2147196781,138,4,13,20534
1378043697,5809,1001.3499755859375000,50.0111389160156250,673.9990234375000000,4.1660060882568360,53.7172012329101560,52,99,87,80,80,15227,2147754422,2147424786,2148012178,2147877065,2147640137,2147053248,2148261385,2147201133,586,4,13,34515
1378047297,5809,999.2100219726562000,49.9383010864257800,674.1824951171875000,4.1599330902099610,53.7337417602539060,52,97,85,79,79,15228,2147754139,2147424365,2148013970,2147872978,2147639643,2147054180,2148264612,2147194916,103,4,13,15544
1378050897,5809,1004.0100097656250000,49.5238685607910160,673.5982055664062000,4.1792621612548830,53.7791404724121100,53,97,85,79,79,15225,2147757604,2147424210,2148009060,2147870317,2147643456,2147055972,2148260836,2147196626,175,4,13,21423
1378054497,5809,1003.9099731445312000,49.5229911804199200,673.7460937500000000,4.1743698120117190,53.7823295593261700,52,99,85,78,79,15228,2147754221,2147421952,2148013622,2147872886,2147640036,2147056502,2148261988,2147197312,367,4,13,45606
1378058097,5811,1000.2299804687500000,49.3190307617187500,673.9531860351562000,4.1675190925598145,53.8133811950683600,52,99,82,78,79,15225,2147756553,2147426742,2148012598,2147870116,2147641718,2147057252,2148265472,2147199588,3474,4,13,55950
1378061697,5810,1000.2899780273438000,49.5604209899902340,673.7194213867188000,4.1752548217773440,53.7771911621093750,52,98,85,79,79,15228,2147753234,2147424832,2148013056,2147870235,2147642797,2147054921,2148264886,2147197988,96,4,13,26893
1378065297,5808,1000.9199829101562000,49.2375793457031250,674.4837036132812000,4.1499691009521480,53.8344306945800800,53,97,83,78,80,15226,2147754752,2147424036,2148013705,2147873700,2147638308,2147056694,2148260763,2147199396,337,4,13,23185
1378068897,5808,985.7500000000000000,50.0173988342285160,675.8063964843750000,4.1061987876892090,53.7435989379882800,53,98,84,80,79,15224,2147757092,2147424457,2148014125,2147872649,2147642194,2147056018,2148262262,2147196342,513,4,13,44584
1378072497,5806,995.3499755859375000,50.2614097595214840,676.6782226562500000,4.0773367881774900,53.7193298339843750,52,96,85,78,80,15227,2147754788,2147422262,2148012068,2147871716,2147643318,2147046354,2148261549,2147200603,3327,4,13,40531
1378076097,5808,997.6900024414062000,50.1690406799316400,676.2144775390625000,4.0926880836486820,53.7234115600585940,52,97,85,78,80,15223,2147755163,2147422729,2148012041,2147875437,2147640164,2147058971,2148261906,2147199890,2763,4,13,2068
1378079697,5809,998.8400268554688000,50.1301193237304700,675.1583862304688000,4.1276450157165530,53.7180900573730500,52,99,84,77,79,15225,2147754358,2147423414,2148013549,2147874742,2147638290,2147059867,2148259904,2147199094,3168,4,13,45915
1378083297,5808,997.1300048828125000,50.3428497314453100,675.8594970703125000,4.1044411659240720,53.6952095031738300,53,99,83,78,79,15225,2147753042,2147420626,2148012489,2147872877,2147641316,2147051702,2148265810,2147197750,134,4,13,59585
1378086897,5806,1000.5900268554688000,49.7809791564941400,675.5811767578125000,4.1136507987976070,53.7719993591308600,53,97,83,78,80,15222,2147756306,2147424859,2148013613,2147874797,2147642377,2147056009,2148263698,2147197248,3216,4,13,50201
1378090497,5807,1001.1400146484375000,49.6620407104492200,674.4055175781250000,4.1525568962097170,53.7719497680664060,52,96,86,79,79,15222,2147753654,2147424393,2148011218,2147877101,2147639808,2147055451,2148262400,2147199570,519,4,13,60755
1378094097,5808,999.7500000000000000,49.5515708923339840,674.9135131835938000,4.1357479095458980,53.7946281433105500,52,99,85,78,79,15219,2147755309,2147421385,2148012187,2147871597,2147646994,2147049746,2148262491,2147193609,198,4,13,58329
1378097697,5810,992.0999755859375000,50.4487609863281250,677.4857788085938000,4.0505919456481930,53.7029609680175800,52,97,79,78,79,15220,2147755291,2147424521,2148011721,2147872100,2147641956,2147058496,2148263634,2147196937,126,4,13,45513
1378101297,5810,999.0800170898438000,50.3732604980468750,676.9816284179688000,4.0672931671142580,53.7083396911621100,52,100,85,79,79,15218,2147753920,2147420946,2148013842,2147875894,2147644169,2147054052,2148262308,2147197193,52,4,13,49010
1378104897,5806,1003.1199951171875000,50.0318984985351560,675.5186157226562000,4.1157250404357910,53.7377014160156250,52,96,86,78,78,15223,2147754468,2147423515,2148011227,2147872292,2147643803,2147058688,2148264502,2147198336,313,4,13,2551
1378108497,5811,999.7999877929688000,49.8689804077148440,675.7791137695312000,4.1071047782897950,53.7618713378906250,53,99,84,77,79,15223,2147757540,2147425536,2148012489,2147872640,2147643465,2147053376,2148262802,2147200365,3422,3,13,58226
1378112097,5810,997.7399902343750000,49.8581314086914060,676.2609252929688000,4.0911560058593750,53.7657585144043000,53,98,85,79,79,15222,2147753115,2147421275,2148009627,2147874907,2147643721,2147056292,2148262436,2147198537,3287,4,13,63172
1378115697,5810,997.9299926757812000,49.7897911071777340,675.6682739257812000,4.1107711791992190,53.7710304260253900,52,98,88,79,79,15216,2147758436,2147427785,2148012745,2147873654,2147644461,2147059099,2148261321,2147197824,150,4,13,45708
1378119297,5809,1000.0800170898438000,50.2789001464843750,677.5255126953125000,4.0492777824401855,53.7281608581543000,52,97,86,79,78,15212,2147757641,2147424896,2148014025,2147873965,2147641115,2147060187,2148263561,2147198592,457,4,13,9658
1378122897,5808,1017.8300170898438000,50.2153091430664060,674.8890991210938000,4.1365571022033690,53.7012481689453100,52,100,86,79,78,15212,2147754907,2147425353,2148012635,2147874971,2147641225,2147056064,2148266678,2147198774,3376,4,13,21065
1378126497,5808,1002.2500000000000000,49.5918693542480500,674.6901245117188000,4.1431407928466800,53.7885093688964840,52,101,85,78,79,15216,2147756937,2147424064,2148014500,2147874048,2147641371,2147056356,2148262701,2147200859,229,4,13,48079
1378130097,5809,1009.7899780273438000,49.5420112609863300,674.8140258789062000,4.1390419006347660,53.7909889221191400,51,97,85,78,79,15211,2147756397,2147426742,2148013412,2147874962,2147640960,2147055469,2148267328,2147201060,85,4,13,42523
1378133697,5808,1013.1599731445312000,49.4666595458984400,674.7700195312500000,4.1404948234558105,53.8043098449707000,52,99,83,79,78,15213,2147757394,2147423424,2148014336,2147877961,2147640109,2147062134,2148263350,2147200164,3403,4,13,18651
1378137297,5807,1012.1699829101562000,49.3901481628418000,674.4403076171875000,4.1514048576354980,53.8095016479492200,52,98,83,78,79,15211,2147755492,2147425938,2148011876,2147876416,2147642870,2147056649,2148265801,2147199661,247,4,13,44601
1378140897,5813,1010.2899780273438000,48.5494308471679700,674.1895751953125000,4.1596980094909670,53.9261207580566400,53,135,86,79,79,15202,2147753115,2147422820,2148014692,2147873901,2147641764,2147059547,2148263579,2147195995,26,4,13,48670
1378144497,5809,1009.3599853515625000,49.1844711303710940,674.8284912109375000,4.1385607719421390,53.8413505554199200,52,97,87,80,78,15210,2147756452,2147424539,2148013211,2147873910,2147641773,2147054372,2148264658,2147197275,3326,4,13,29581
1378148097,5808,1009.7899780273438000,49.8379516601562500,675.1088256835938000,4.1292839050292970,53.7592582702636700,52,99,83,80,79,15212,2147754587,2147427419,2148012973,2147874569,2147642715,2147054701,2148264566,2147198720,220,4,13,44425
1378151754,5808,1009.1199951171875000,49.6833801269531250,675.1857299804688000,4.1267399787902830,53.7773017883300800,53,99,84,79,78,15232,2147756425,2147423908,2148010907,2147875776,2147642011,2147056832,2148264841,2147198537,137,4,13,37901
